• în România
  • Lista ţărilor
  • Pe 7 zile
  • Temperatura apei
  • Hartă satelitară
  • Meteo pe hartă
  • Widget-uri
  • user-avatar
    Intrare

    Meteo pe oră la Keret

    Astăzi, 21 Octombrie, Duminică

    Timp Temperatura Precipitaţii Vânt Presiune Umiditate
    00:00 0°C° 0 mm 3 m/s 755 mmHg 94%
    01:00 0°C° 0 mm 3 m/s 754 mmHg 95%
    02:00 0°C° 0 mm 3 m/s 754 mmHg 96%
    03:00 +1°C° 0 mm 3 m/s 754 mmHg 96%
    04:00 0°C° 0 mm 4 m/s 753 mmHg 95%
    05:00 0°C° 0 mm 4 m/s 753 mmHg 95%
    06:00 0°C° 0 mm 4 m/s 752 mmHg 94%
    07:00 +1°C° 0 mm 4 m/s 752 mmHg 93%
    08:00 +1°C° 0 mm 4 m/s 752 mmHg 93%
    09:00 +1°C° 0 mm 5 m/s 751 mmHg 90%
    10:00 +2°C° 0 mm 5 m/s 751 mmHg 88%
    11:00 +2°C° 0 mm 6 m/s 750 mmHg 86%
    12:00 +2°C° 0.4 mm 6 m/s 749 mmHg 85%
    13:00 +2°C° 0.4 mm 7 m/s 749 mmHg 85%
    14:00 +3°C° 0.4 mm 7 m/s 748 mmHg 85%
    15:00 +3°C° 0.2 mm 7 m/s 747 mmHg 84%
    16:00 +3°C° 0.2 mm 7 m/s 747 mmHg 84%
    17:00 +3°C° 0.2 mm 7 m/s 746 mmHg 83%
    18:00 +4°C° 0.2 mm 7 m/s 746 mmHg 84%
    19:00 +4°C° 0.2 mm 6 m/s 745 mmHg 86%
    20:00 +4°C° 0.2 mm 6 m/s 745 mmHg 87%
    21:00 +4°C° 0.9 mm 6 m/s 744 mmHg 88%
    22:00 +4°C° 0.9 mm 6 m/s 743 mmHg 89%
    23:00 +3°C° 0.9 mm 5 m/s 743 mmHg 91%

    Mâine, 22 Octombrie, Luni

    Timp Temperatura Precipitaţii Vânt Presiune Umiditate
    00:00 +3°C° 0.6 mm 5 m/s 742 mmHg 91%
    01:00 +4°C° 0.6 mm 4 m/s 741 mmHg 92%
    02:00 +4°C° 0.6 mm 4 m/s 741 mmHg 93%
    03:00 +4°C° 1 mm 3 m/s 739 mmHg 94%
    04:00 +4°C° 1 mm 2 m/s 738 mmHg 96%
    05:00 +4°C° 1 mm 2 m/s 737 mmHg 97%
    06:00 +4°C° 0.9 mm 2 m/s 737 mmHg 97%
    07:00 +3°C° 0.9 mm 3 m/s 736 mmHg 96%
    08:00 +3°C° 0.9 mm 3 m/s 736 mmHg 95%
    09:00 +4°C° 0.4 mm 4 m/s 736 mmHg 93%
    10:00 +4°C° 0.4 mm 4 m/s 736 mmHg 90%
    11:00 +3°C° 0.4 mm 5 m/s 736 mmHg 87%
    12:00 +3°C° 0.1 mm 5 m/s 737 mmHg 85%
    13:00 +3°C° 0.1 mm 5 m/s 737 mmHg 82%
    14:00 +3°C° 0.1 mm 5 m/s 737 mmHg 79%
    15:00 +3°C° 0 mm 5 m/s 737 mmHg 79%
    16:00 +2°C° 0 mm 5 m/s 737 mmHg 80%
    17:00 +1°C° 0 mm 5 m/s 738 mmHg 81%
    18:00 +1°C° 0.1 mm 5 m/s 737 mmHg 80%
    19:00 +1°C° 0.1 mm 5 m/s 737 mmHg 80%
    20:00 +1°C° 0.1 mm 5 m/s 737 mmHg 80%
    21:00 +1°C° 0 mm 5 m/s 737 mmHg 82%
    22:00 0°C° 0 mm 5 m/s 736 mmHg 83%
    23:00 0°C° 0 mm 5 m/s 736 mmHg 85%

    Poimâine, 23 Octombrie, Marţi

    Timp Temperatura Precipitaţii Vânt Presiune Umiditate
    00:00 0°C° 0 mm 4 m/s 736 mmHg 86%
    01:00 0°C° 0 mm 4 m/s 736 mmHg 88%
    02:00 0°C° 0 mm 4 m/s 736 mmHg 89%
    03:00 0°C° 0 mm 4 m/s 735 mmHg 88%
    04:00 -1°C° 0 mm 4 m/s 735 mmHg 88%
    05:00 -1°C° 0 mm 5 m/s 735 mmHg 87%
    06:00 -1°C° 0 mm 5 m/s 735 mmHg 87%
    07:00 -1°C° 0 mm 5 m/s 735 mmHg 86%
    08:00 -1°C° 0 mm 5 m/s 735 mmHg 86%
    09:00 0°C° 0 mm 5 m/s 735 mmHg 82%
    10:00 0°C° 0 mm 5 m/s 735 mmHg 77%
    11:00 +1°C° 0 mm 5 m/s 735 mmHg 73%
    12:00 +1°C° 0 mm 5 m/s 736 mmHg 74%
    13:00 +1°C° 0 mm 5 m/s 736 mmHg 75%
    14:00 +1°C° 0 mm 5 m/s 736 mmHg 76%
    15:00 +1°C° 0 mm 4 m/s 736 mmHg 78%
    16:00 0°C° 0 mm 4 m/s 736 mmHg 80%
    17:00 0°C° 0 mm 4 m/s 736 mmHg 82%
    18:00 0°C° 0 mm 4 m/s 736 mmHg 83%
    19:00 -1°C° 0 mm 4 m/s 736 mmHg 83%
    20:00 0°C° 0 mm 3 m/s 736 mmHg 84%
    21:00 0°C° 0 mm 3 m/s 736 mmHg 85%
    22:00 -1°C° 0 mm 3 m/s 736 mmHg 86%
    23:00 -1°C° 0 mm 3 m/s 737 mmHg 87%

    24 Octombrie, Miercuri

    Timp Temperatura Precipitaţii Vânt Presiune Umiditate
    00:00 -1°C° 0 mm 3 m/s 737 mmHg 87%
    01:00 -1°C° 0 mm 3 m/s 737 mmHg 87%
    02:00 0°C° 0 mm 3 m/s 737 mmHg 87%
    03:00 0°C° 0.1 mm 3 m/s 737 mmHg 88%
    04:00 0°C° 0.1 mm 3 m/s 737 mmHg 88%
    05:00 0°C° 0.1 mm 3 m/s 737 mmHg 88%
    06:00 -1°C° 0 mm 3 m/s 737 mmHg 88%
    07:00 -1°C° 0 mm 3 m/s 737 mmHg 89%
    08:00 -1°C° 0 mm 3 m/s 737 mmHg 90%
    09:00 0°C° 0 mm 3 m/s 738 mmHg 88%
    10:00 +1°C° 0 mm 2 m/s 738 mmHg 85%
    11:00 +2°C° 0 mm 2 m/s 738 mmHg 83%
    12:00 +2°C° 0 mm 2 m/s 738 mmHg 85%
    13:00 +2°C° 0 mm 2 m/s 738 mmHg 86%
    14:00 +2°C° 0 mm 2 m/s 738 mmHg 88%
    15:00 +2°C° 0 mm 2 m/s 739 mmHg 90%
    16:00 +1°C° 0 mm 2 m/s 739 mmHg 92%
    17:00 -1°C° 0 mm 2 m/s 739 mmHg 94%
    18:00 -1°C° 0 mm 2 m/s 739 mmHg 94%
    19:00 +1°C° 0 mm 2 m/s 739 mmHg 93%
    20:00 +1°C° 0 mm 2 m/s 739 mmHg 93%
    21:00 +1°C° 0 mm 2 m/s 739 mmHg 94%
    22:00 +1°C° 0 mm 2 m/s 739 mmHg 94%
    23:00 +1°C° 0 mm 2 m/s 738 mmHg 94%

    25 Octombrie, Joi

    Timp Temperatura Precipitaţii Vânt Presiune Umiditate
    00:00 -1°C° 0 mm 2 m/s 738 mmHg 94%
    01:00 -1°C° 0 mm 2 m/s 738 mmHg 95%
    02:00 -1°C° 0 mm 2 m/s 738 mmHg 95%
    03:00 -1°C° 0 mm 2 m/s 738 mmHg 95%
    04:00 -1°C° 0 mm 2 m/s 738 mmHg 95%
    05:00 -1°C° 0 mm 2 m/s 737 mmHg 95%
    06:00 -1°C° 0 mm 2 m/s 737 mmHg 94%
    07:00 -1°C° 0 mm 2 m/s 737 mmHg 94%
    08:00 +1°C° 0 mm 1 m/s 737 mmHg 93%
    09:00 +2°C° 0.1 mm 1 m/s 737 mmHg 90%
    10:00 +3°C° 0.1 mm 1 m/s 737 mmHg 87%
    11:00 +3°C° 0.1 mm 1 m/s 737 mmHg 84%
    12:00 +2°C° 0.1 mm 2 m/s 737 mmHg 84%
    13:00 +2°C° 0.1 mm 2 m/s 737 mmHg 84%
    14:00 +1°C° 0.1 mm 3 m/s 736 mmHg 84%
    15:00 +1°C° 0.1 mm 3 m/s 736 mmHg 84%
    16:00 +1°C° 0.1 mm 3 m/s 736 mmHg 85%
    17:00 0°C° 0.1 mm 3 m/s 736 mmHg 85%
    18:00 0°C° 0.1 mm 3 m/s 736 mmHg 84%
    19:00 -1°C° 0.1 mm 4 m/s 736 mmHg 83%
    20:00 -1°C° 0.1 mm 4 m/s 735 mmHg 82%
    21:00 -1°C° 0 mm 4 m/s 735 mmHg 82%
    22:00 -2°C° 0 mm 4 m/s 735 mmHg 83%
    23:00 -2°C° 0 mm 5 m/s 735 mmHg 83%

    26 Octombrie, Vineri

    Timp Temperatura Precipitaţii Vânt Presiune Umiditate
    00:00 -2°C° 0.1 mm 5 m/s 734 mmHg 83%
    01:00 -2°C° 0.1 mm 5 m/s 734 mmHg 83%
    02:00 -2°C° 0.1 mm 5 m/s 734 mmHg 83%
    03:00 -2°C° 0.2 mm 5 m/s 733 mmHg 83%
    04:00 -3°C° 0.2 mm 6 m/s 733 mmHg 84%
    05:00 -3°C° 0.2 mm 6 m/s 732 mmHg 84%
    06:00 -3°C° 0.3 mm 6 m/s 732 mmHg 84%
    07:00 -2°C° 0.3 mm 6 m/s 732 mmHg 84%
    08:00 -2°C° 0.3 mm 6 m/s 731 mmHg 85%
    09:00 -2°C° 0.4 mm 6 m/s 731 mmHg 84%
    10:00 -2°C° 0.4 mm 6 m/s 731 mmHg 83%
    11:00 -1°C° 0.4 mm 6 m/s 731 mmHg 83%
    12:00 -1°C° 0.4 mm 6 m/s 731 mmHg 82%
    13:00 -1°C° 0.4 mm 6 m/s 731 mmHg 82%
    14:00 -1°C° 0.4 mm 6 m/s 731 mmHg 82%
    15:00 -1°C° 0.3 mm 6 m/s 731 mmHg 82%
    16:00 -1°C° 0.3 mm 6 m/s 731 mmHg 83%
    17:00 -1°C° 0.3 mm 6 m/s 731 mmHg 83%
    18:00 -1°C° 0.2 mm 6 m/s 731 mmHg 83%
    19:00 -1°C° 0.2 mm 6 m/s 731 mmHg 83%
    20:00 -1°C° 0.2 mm 6 m/s 731 mmHg 84%
    21:00 -2°C° 0 mm 6 m/s 732 mmHg 84%
    22:00 -2°C° 0 mm 6 m/s 732 mmHg 84%
    23:00 -2°C° 0 mm 6 m/s 732 mmHg 84%
    Arată mai mult